This demonstration page uses our WeatherBlox Daily Observations layout. Learn more.

Left ArrowRight Arrow

Hourly Observations for September 17, 2019

Temp ( °F °C ) Dew Point ( °F °C ) Humidity (%) Winds ( mph kmh ) Pressure ( in mb ) Visibility ( mi km ) Precip ( " mm )
12:59 am 00:59 Mostly Clear 70 21.1 68 20 93 93 Calm 29.98 1015 10 16 0.00 0.00
1:59 am 01:59 Mostly Cloudy 70 21.1 69 20.6 97 97 ENE 3 6 29.98 1015 9 14 0.00 0.00
2:59 am 02:59 Mostly Cloudy 70 21.1 69 20.6 97 97 Calm 29.98 1015 9 14 0.00 0.00
3:59 am 03:59 Mostly Cloudy 71 21.7 70 21.1 96 96 Calm 29.96 1015 10 16 0.00 0.00
4:59 am 04:59 Mostly Cloudy 73 22.8 71 21.7 94 94 NE 5 7 29.96 1015 10 16 0.00 0.00
5:59 am 05:59 Mostly Clear 74 23.3 70 21.1 88 88 NE 7 11 29.98 1015 10 16 0.00 0.00
6:29 am 06:29 Mostly Cloudy 75 23.9 71 21.7 88 88 NE 10 17 29.99 1016 10 16 0.00 0.00
6:59 am 06:59 Mostly Cloudy 75 23.9 70 21.1 84 84 ENE 12 19 30.00 1016 10 16 0.00 0.00
7:26 am 07:26 Partly Cloudy 75 23.9 69 20.6 82 82 ENE 12 19 30.01 1016 10 16 0.00 0.00
7:59 am 07:59 Partly Cloudy 76 24.4 69 20.6 79 79 ENE 13 20 30.02 1017 10 16 0.00 0.00
8:25 am 08:25 Mostly Cloudy 76 24.4 69 20.6 79 79 ENE 15 24 30.02 1017 10 16 0.00 0.00
8:37 am 08:37 Partly Cloudy 76 24.4 68 20 77 77 E 12 19 30.02 1017 10 16 0.00 0.00
8:59 am 08:59 Mostly Cloudy 77 25 68 20 74 74 ENE 13 20 30.03 1017 10 16 0.00 0.00
9:59 am 09:59 Mostly Cloudy 78 25.6 67 19.4 69 69 E 15 24 30.04 1017 10 16 0.00 0.00
10:59 am 10:59 Mostly Cloudy 79 26.1 69 20.6 72 72 E 15 24 30.05 1018 10 16 0.00 0.00
11:59 am 11:59 Mostly Cloudy 79 26.1 68 20 69 69 ENE 17 28 30.06 1018 10 16 0.00 0.00
12:59 pm 12:59 Mostly Cloudy 79 26.1 68 20 69 69 ENE 14 22 30.06 1018 10 16 0.00 0.00
1:59 pm 13:59 Cloudy 78 25.6 66 18.9 67 67 ENE 16 26 30.06 1018 10 16 0.00 0.00
2:59 pm 14:59 Mostly Cloudy 78 25.6 64 17.8 62 62 ENE 16 26 30.05 1018 10 16 0.00 0.00
3:59 pm 15:59 Cloudy 76 24.4 64 17.8 67 67 ENE 18 30 30.05 1018 10 16 0.00 0.00
4:45 pm 16:45 Cloudy 75 23.9 64 17.8 69 69 ENE 10 17 30.05 1018 10 16 0.00 0.00
4:59 pm 16:59 Cloudy 75 23.9 64 17.8 69 69 ENE 16 26 30.05 1018 10 16 0.00 0.00
5:21 pm 17:21 Cloudy 74 23.3 63 17.2 69 69 ENE 16 26 30.06 1018 10 16 0.00 0.00
5:59 pm 17:59 Mostly Cloudy 74 23.3 63 17.2 69 69 ENE 15 24 30.06 1018 10 16 0.00 0.00
6:59 pm 18:59 Mostly Cloudy 73 22.8 61 16.1 66 66 ENE 14 22 30.08 1019 10 16 0.00 0.00
7:59 pm 19:59 Mostly Cloudy 72 22.2 60 15.6 66 66 NE 15 24 30.08 1019 10 16 0.00 0.00
8:59 pm 20:59 Partly Cloudy 71 21.7 56 13.3 59 59 ENE 14 22 30.09 1019 10 16 0.00 0.00
9:59 pm 21:59 Mostly Cloudy 70 21.1 58 14.4 66 66 ENE 13 20 30.09 1019 10 16 0.00 0.00
10:59 pm 22:59 Partly Cloudy 70 21.1 55 12.8 59 59 ENE 14 22 30.09 1019 10 16 0.00 0.00
11:59 pm 23:59 Clear 70 21.1 55 12.8 59 59 ENE 13 20 30.09 1019 10 16 0.00 0.00

Powered by AerisWeather